Вернуться в каталог

ISIS 2 DEB

АктивенPO
NORAD 27658·DEBRIS·🇨🇦 Canada

Запущен Apr 1, 1971 с Vandenberg Space Force Base

Loading…

Ближайшие Пролёты (ближайшие 24 часа)

TLE

СвежийSource: Space-Track

Эпоха: Sep 14, 2026, 14:06 UTC

1 27658U 71024D   26257.58794488  .00000457  00000-0  20160-2 0  9994
2 27658  88.1588 291.3304 0053575  66.0946  91.1849 12.77570959101574

Отслеживайте ISIS 2 DEB в реальном времени с AllMySat

Download on the App Store